| time (UTC) | temp F | wind direction | speed knots | gust knots | rain 1hr in | rain 24hr in | rain mn in | humidity % | barometer mb |
| 20260903183644 | 85 | 163 | 6.1 | 8.7 | 0.00 | 0.00 | 0.00 | 73 | 1014.8 |
| 20260903183139 | 86 | 232 | 0.9 | 1.7 | 0.00 | 0.00 | 0.00 | 74 | 1014.9 |
| 20260903182638 | 86 | 185 | 6.1 | 7.0 | 0.00 | 0.00 | 0.00 | 73 | 1014.9 |
| 20260903182134 | 85 | 197 | 4.3 | 6.1 | 0.00 | 0.00 | 0.00 | 75 | 1015.0 |
| 20260903181632 | 85 | 161 | 3.5 | 5.2 | 0.00 | 0.00 | 0.00 | 75 | 1015.1 |
| 20260903181126 | 85 | 134 | 4.3 | 5.2 | 0.00 | 0.00 | 0.00 | 75 | 1015.2 |
| 20260903180622 | 84 | 158 | 3.5 | 5.2 | 0.00 | 0.00 | 0.00 | 76 | 1015.2 |
| 20260903180116 | 84 | 164 | 1.7 | 2.6 | 0.00 | 0.00 | 0.00 | 76 | 1015.3 |
| 20260903175615 | 84 | 211 | 0.9 | 0.9 | 0.00 | 0.00 | 0.00 | 76 | 1015.2 |
| 20260903175114 | 84 | 204 | 3.5 | 5.2 | 0.00 | 0.00 | 0.00 | 77 | 1015.2 |
| 20260903174609 | 84 | 207 | 2.6 | 2.6 | 0.00 | 0.00 | 0.00 | 77 | 1015.3 |
| 20260903174104 | 83 | 164 | 0.9 | 1.7 | 0.00 | 0.00 | 0.00 | 78 | 1015.4 |
| 20260903173600 | 83 | 205 | 3.5 | 6.1 | 0.00 | 0.00 | 0.00 | 80 | 1015.5 |
| 20260903173056 | 83 | 205 | 3.5 | 8.7 | 0.00 | 0.00 | 0.00 | 80 | 1015.6 |
| 20260903172556 | 83 | 172 | 1.7 | 1.7 | 0.00 | 0.00 | 0.00 | 81 | 1015.7 |
| 20260903172052 | 83 | 181 | 2.6 | 6.1 | 0.00 | 0.00 | 0.00 | 80 | 1015.5 |
| 20260903171551 | 83 | 167 | 1.7 | 1.7 | 0.00 | 0.00 | 0.00 | 81 | 1015.5 |
| 20260903171047 | 82 | 156 | 2.6 | 4.3 | 0.00 | 0.00 | 0.00 | 82 | 1015.6 |
| 20260903170545 | 82 | 166 | 3.5 | 6.1 | 0.00 | 0.00 | 0.00 | 82 | 1015.5 |
| 20260903170042 | 82 | 152 | 1.7 | 1.7 | 0.00 | 0.00 | 0.00 | 82 | 1015.7 |
| 20260903165538 | 82 | 139 | 1.7 | 4.3 | 0.00 | 0.00 | 0.00 | 82 | 1015.6 |
| 20260903165034 | 82 | 122 | 1.7 | 2.6 | 0.00 | 0.00 | 0.00 | 83 | 1015.7 |
| 20260903164529 | 82 | 177 | 4.3 | 5.2 | 0.00 | 0.00 | 0.00 | 83 | 1015.5 |
| 20260903164024 | 82 | 111 | 5.2 | 8.7 | 0.00 | 0.00 | 0.00 | 82 | 1015.5 |
| 20260903163520 | 82 | 175 | 2.6 | 5.2 | 0.00 | 0.00 | 0.00 | 83 | 1015.5 |
| 20260903163015 | 82 | 180 | 5.2 | 7.8 | 0.00 | 0.00 | 0.00 | 83 | 1015.6 |
| 20260903162512 | 83 | 221 | 2.6 | 4.3 | 0.00 | 0.00 | 0.00 | 83 | 1015.3 |
| 20260903162007 | 83 | 274 | 2.6 | 2.6 | 0.00 | 0.00 | 0.00 | 83 | 1015.4 |
| 20260903161502 | 83 | 97 | 1.7 | 1.7 | 0.00 | 0.00 | 0.00 | 83 | 1015.3 |
| 20260903160958 | 82 | 188 | 3.5 | 4.3 | 0.00 | 0.00 | 0.00 | 84 | 1015.5 |
| 20260903160457 | 83 | 155 | 1.7 | 2.6 | 0.00 | 0.00 | 0.00 | 84 | 1015.3 |
| 20260903155951 | 82 | 183 | 4.3 | 6.1 | 0.00 | 0.00 | 0.00 | 85 | 1015.4 |
| 20260903155451 | 82 | 175 | 0.9 | 1.7 | 0.00 | 0.00 | 0.00 | 86 | 1015.4 |
| 20260903154947 | 82 | 188 | 1.7 | 2.6 | 0.00 | 0.00 | 0.00 | 87 | 1015.4 |
| 20260903154442 | 81 | 143 | 0.9 | 1.7 | 0.00 | 0.00 | 0.00 | 88 | 1015.2 |
| 20260903153938 | 81 | 118 | 1.7 | 4.3 | 0.00 | 0.00 | 0.00 | 89 | 1015.4 |
| 20260903153433 | 80 | 130 | 0.9 | 1.7 | 0.00 | 0.00 | 0.00 | 89 | 1015.3 |
| 20260903152930 | 80 | 156 | 0.9 | 1.7 | 0.00 | 0.00 | 0.00 | 90 | 1015.3 |
| 20260903152425 | 80 | 191 | 1.7 | 2.6 | 0.00 | 0.00 | 0.00 | 90 | 1015.4 |
| 20260903151921 | 80 | 197 | 0.0 | 0.9 | 0.00 | 0.00 | 0.00 | 90 | 1015.3 |
| 20260903151415 | 80 | 195 | 1.7 | 2.6 | 0.00 | 0.00 | 0.00 | 90 | 1015.3 |
| 20260903150916 | 80 | 142 | 1.7 | 1.7 | 0.00 | 0.00 | 0.00 | 90 | 1015.4 |
| 20260903150411 | 80 | 159 | 2.6 | 2.6 | 0.00 | 0.00 | 0.00 | 90 | 1015.4 |
| 20260903145905 | 80 | 139 | 2.6 | 2.6 | 0.00 | 0.00 | 0.00 | 91 | 1015.2 |
| 20260903145401 | 80 | 207 | 2.6 | 2.6 | 0.00 | 0.00 | 0.00 | 91 | 1015.3 |
| 20260903144900 | 80 | 161 | 0.9 | 0.9 | 0.00 | 0.00 | 0.00 | 91 | 1015.5 |
| 20260903144355 | 80 | 214 | 1.7 | 1.7 | 0.00 | 0.00 | 0.00 | 91 | 1015.3 |
| 20260903143850 | 80 | 215 | 1.7 | 2.6 | 0.00 | 0.00 | 0.00 | 92 | 1015.4 |
| 20260903143348 | 79 | 147 | 0.9 | 0.9 | 0.00 | 0.00 | 0.00 | 92 | 1015.3 |
| 20260903142848 | 79 | 129 | 0.9 | 1.7 | 0.00 | 0.00 | 0.00 | 92 | 1015.2 |
| 20260903142344 | 79 | 165 | 0.9 | 0.9 | 0.00 | 0.00 | 0.00 | 93 | 1015.5 |
| 20260903141839 | 79 | 135 | 0.9 | 0.9 | 0.00 | 0.00 | 0.00 | 93 | 1015.5 |
| 20260903141335 | 79 | 201 | 1.7 | 1.7 | 0.00 | 0.00 | 0.00 | 93 | 1015.3 |
| 20260903140830 | 79 | 174 | 3.5 | 4.3 | 0.00 | 0.00 | 0.00 | 93 | 1015.5 |
| 20260903140325 | 79 | 180 | 0.9 | 0.9 | 0.00 | 0.00 | 0.00 | 93 | 1015.4 |
| 20260903135821 | 79 | 182 | 0.0 | 0.0 | 0.00 | 0.00 | 0.00 | 94 | 1015.5 |
| 20260903135316 | 78 | 165 | 0.9 | 1.7 | 0.00 | 0.00 | 0.00 | 94 | 1015.4 |
| 20260903134815 | 78 | 180 | 0.9 | 1.7 | 0.00 | 0.00 | 0.00 | 94 | 1015.2 |
| 20260903134311 | 78 | 202 | 2.6 | 2.6 | 0.00 | 0.00 | 0.00 | 94 | 1015.5 |
| 20260903133808 | 78 | 191 | 0.9 | 0.9 | 0.00 | 0.00 | 0.00 | 95 | 1015.5 |
| 20260903133304 | 78 | 125 | 1.7 | 1.7 | 0.00 | 0.00 | 0.00 | 95 | 1015.6 |
| 20260903132804 | 78 | 112 | 2.6 | 2.6 | 0.00 | 0.00 | 0.00 | 95 | 1015.6 |
| 20260903132300 | 78 | 168 | 1.7 | 1.7 | 0.00 | 0.00 | 0.00 | 95 | 1015.4 |
| 20260903131755 | 78 | 180 | 0.9 | 1.7 | 0.00 | 0.00 | 0.00 | 95 | 1015.3 |
| 20260903131254 | 77 | 182 | 0.0 | 0.9 | 0.00 | 0.00 | 0.00 | 95 | 1015.3 |
| 20260903130749 | 77 | 175 | 0.9 | 1.7 | 0.00 | 0.00 | 0.00 | 95 | 1014.9 |
| 20260903130243 | 77 | 188 | 0.0 | 0.0 | 0.00 | 0.00 | 0.00 | 96 | 1015.2 |
| 20260903125742 | 77 | 214 | 1.7 | 1.7 | 0.00 | 0.00 | 0.00 | 95 | 1015.2 |
| 20260903125237 | 77 | 208 | 1.7 | 1.7 | 0.00 | 0.00 | 0.00 | 96 | 1015.2 |
| 20260903124737 | 77 | 138 | 2.6 | 2.6 | 0.00 | 0.00 | 0.00 | 96 | 1015.1 |
| 20260903124232 | 77 | 208 | 0.9 | 1.7 | 0.00 | 0.00 | 0.00 | 96 | 1015.1 |
| 20260903123730 | 77 | 130 | 0.9 | 0.9 | 0.00 | 0.00 | 0.00 | 95 | 1014.9 |
| 20260903123230 | 77 | 175 | 0.0 | 0.9 | 0.00 | 0.00 | 0.00 | 95 | 1014.8 |
| 20260903122729 | 77 | 129 | 1.7 | 2.6 | 0.00 | 0.00 | 0.00 | 95 | 1014.9 |
| 20260903122224 | 77 | 114 | 1.7 | 2.6 | 0.00 | 0.00 | 0.00 | 95 | 1015.2 |
| 20260903121722 | 77 | 153 | 1.7 | 2.6 | 0.00 | 0.00 | 0.00 | 95 | 1015.0 |
| 20260903121219 | 77 | 117 | 1.7 | 1.7 | 0.00 | 0.00 | 0.00 | 95 | 1014.8 |
| 20260903120718 | 77 | 137 | 0.9 | 1.7 | 0.00 | 0.00 | 0.00 | 94 | 1014.8 |
| 20260903120212 | 77 | 128 | 0.9 | 0.9 | 0.00 | 0.00 | 0.00 | 94 | 1014.7 |
| 20260903115711 | 77 | 140 | 1.7 | 1.7 | 0.00 | 0.00 | 0.00 | 94 | 1014.8 |
| 20260903115207 | 77 | 191 | 1.7 | 1.7 | 0.00 | 0.00 | 0.00 | 94 | 1014.6 |
| 20260903114707 | 77 | 129 | 0.9 | 1.7 | 0.00 | 0.00 | 0.00 | 94 | 1014.4 |
| 20260903114202 | 77 | 151 | 0.9 | 0.9 | 0.00 | 0.00 | 0.00 | 94 | 1014.5 |
| 20260903113657 | 77 | 188 | 0.0 | 0.0 | 0.00 | 0.00 | 0.00 | 94 | 1014.3 |
| 20260903113154 | 77 | 203 | 0.0 | 0.0 | 0.00 | 0.00 | 0.00 | 94 | 1014.5 |
| 20260903112649 | 77 | 191 | 0.0 | 0.0 | 0.00 | 0.00 | 0.00 | 95 | 1014.6 |
| 20260903112144 | 76 | 193 | 0.0 | 0.0 | 0.00 | 0.00 | 0.00 | 95 | 1014.8 |
| 20260903111643 | 76 | 196 | 0.9 | 0.9 | 0.00 | 0.00 | 0.00 | 95 | 1014.5 |
| 20260903111138 | 77 | 190 | 0.0 | 0.0 | 0.00 | 0.00 | 0.00 | 95 | 1014.6 |
| 20260903110634 | 77 | 189 | 0.9 | 1.7 | 0.00 | 0.00 | 0.00 | 95 | 1014.6 |
| 20260903110130 | 77 | 177 | 0.9 | 0.9 | 0.00 | 0.00 | 0.00 | 95 | 1014.9 |
| 20260903105624 | 77 | 200 | 2.6 | 2.6 | 0.00 | 0.00 | 0.00 | 95 | 1014.6 |
| 20260903105120 | 77 | 157 | 0.0 | 0.9 | 0.00 | 0.00 | 0.00 | 95 | 1014.5 |
| 20260903104619 | 76 | 169 | 1.7 | 1.7 | 0.00 | 0.00 | 0.00 | 95 | 1014.7 |
| 20260903104115 | 76 | 170 | 0.9 | 0.9 | 0.00 | 0.00 | 0.00 | 95 | 1014.4 |
| 20260903103610 | 76 | 196 | 0.9 | 0.9 | 0.00 | 0.00 | 0.00 | 95 | 1014.5 |
| 20260903103106 | 76 | 179 | 1.7 | 1.7 | 0.00 | 0.00 | 0.00 | 95 | 1014.3 |
| 20260903102601 | 76 | 151 | 1.7 | 1.7 | 0.00 | 0.00 | 0.00 | 94 | 1014.3 |
| 20260903102100 | 76 | 190 | 0.9 | 1.7 | 0.00 | 0.00 | 0.00 | 94 | 1014.4 |
| 20260903101556 | 76 | 158 | 0.9 | 0.9 | 0.00 | 0.00 | 0.00 | 94 | 1014.1 |
| 20260903101051 | 77 | 194 | 0.0 | 0.9 | 0.00 | 0.00 | 0.00 | 94 | 1014.0 |
| 20260903100551 | 77 | 171 | 0.0 | 0.0 | 0.00 | 0.00 | 0.00 | 93 | 1014.4 |
| 20260903100050 | 77 | 113 | 0.9 | 1.7 | 0.00 | 0.00 | 0.00 | 93 | 1014.1 |
| 20260903095548 | 77 | 172 | 1.7 | 1.7 | 0.00 | 0.00 | 0.00 | 93 | 1014.4 |
| 20260903095043 | 77 | 133 | 0.9 | 0.9 | 0.00 | 0.00 | 0.00 | 92 | 1014.4 |
| 20260903094543 | 77 | 161 | 0.9 | 1.7 | 0.00 | 0.00 | 0.00 | 92 | 1014.5 |
| 20260903094039 | 77 | 139 | 1.7 | 2.6 | 0.00 | 0.00 | 0.00 | 92 | 1014.1 |
| 20260903093539 | 77 | 190 | 1.7 | 1.7 | 0.00 | 0.00 | 0.00 | 93 | 1014.3 |
| 20260903093034 | 77 | 148 | 1.7 | 1.7 | 0.00 | 0.00 | 0.00 | 93 | 1014.4 |
| 20260903092533 | 76 | 182 | 0.9 | 2.6 | 0.00 | 0.00 | 0.00 | 94 | 1014.1 |
| 20260903092028 | 76 | 193 | 1.7 | 1.7 | 0.00 | 0.00 | 0.00 | 95 | 1014.1 |
| 20260903091526 | 76 | 177 | 1.7 | 1.7 | 0.00 | 0.00 | 0.00 | 95 | 1014.0 |
| 20260903091021 | 76 | 178 | 0.9 | 2.6 | 0.00 | 0.00 | 0.00 | 96 | 1014.1 |
| 20260903090517 | 76 | 231 | 0.9 | 0.9 | 0.00 | 0.00 | 0.00 | 96 | 1014.0 |
| 20260903090016 | 76 | 188 | 2.6 | 4.3 | 0.00 | 0.00 | 0.00 | 96 | 1014.3 |
| 20260903085514 | 77 | 200 | 3.5 | 4.3 | 0.00 | 0.00 | 0.00 | 96 | 1014.1 |
| 20260903085010 | 77 | 132 | 0.0 | 0.9 | 0.00 | 0.00 | 0.00 | 96 | 1014.0 |
| 20260903084508 | 77 | 190 | 0.9 | 0.9 | 0.00 | 0.00 | 0.00 | 96 | 1013.8 |
| 20260903084004 | 77 | 192 | 0.9 | 1.7 | 0.00 | 0.00 | 0.00 | 96 | 1014.0 |
| 20260903083459 | 77 | 197 | 0.0 | 0.0 | 0.00 | 0.00 | 0.00 | 96 | 1014.0 |
| 20260903082958 | 77 | 176 | 0.9 | 0.9 | 0.00 | 0.00 | 0.00 | 95 | 1013.9 |
| 20260903082453 | 77 | 197 | 0.9 | 0.9 | 0.00 | 0.00 | 0.00 | 95 | 1014.0 |
| 20260903081948 | 77 | 185 | 0.9 | 0.9 | 0.00 | 0.00 | 0.00 | 95 | 1013.8 |
| 20260903081443 | 77 | 184 | 0.0 | 0.0 | 0.00 | 0.00 | 0.00 | 94 | 1013.8 |
| 20260903080939 | 77 | 189 | 0.0 | 0.0 | 0.00 | 0.00 | 0.00 | 94 | 1013.9 |
| 20260903080435 | 77 | 202 | 0.0 | 0.0 | 0.00 | 0.00 | 0.00 | 94 | 1014.0 |
| 20260903075931 | 77 | 188 | 0.0 | 0.9 | 0.00 | 0.00 | 0.00 | 93 | 1014.0 |
| 20260903075426 | 77 | 107 | 0.0 | 0.0 | 0.00 | 0.00 | 0.00 | 93 | 1014.3 |
| 20260903074921 | 77 | 191 | 0.0 | 0.0 | 0.00 | 0.00 | 0.00 | 92 | 1013.9 |
| 20260903074420 | 77 | 181 | 0.0 | 0.0 | 0.00 | 0.00 | 0.00 | 92 | 1013.7 |
| 20260903073916 | 77 | 199 | 0.0 | 0.0 | 0.00 | 0.00 | 0.00 | 92 | 1013.5 |
| 20260903073411 | 77 | 178 | 0.0 | 0.0 | 0.00 | 0.00 | 0.00 | 91 | 1013.8 |
| 20260903072907 | 78 | 157 | 0.0 | 0.0 | 0.00 | 0.00 | 0.00 | 91 | 1014.0 |
| 20260903072402 | 78 | 54 | 0.9 | 0.9 | 0.00 | 0.00 | 0.00 | 90 | 1013.9 |
| 20260903071859 | 78 | 103 | 0.9 | 1.7 | 0.00 | 0.00 | 0.00 | 88 | 1014.3 |
| 20260903071355 | 79 | 51 | 0.9 | 0.9 | 0.00 | 0.00 | 0.00 | 87 | 1013.9 |
| 20260903070850 | 79 | 58 | 0.9 | 0.9 | 0.00 | 0.00 | 0.00 | 85 | 1013.9 |
| 20260903070345 | 80 | 59 | 0.9 | 1.7 | 0.00 | 0.00 | 0.00 | 84 | 1013.7 |
| 20260903065840 | 80 | 79 | 0.0 | 0.9 | 0.00 | 0.00 | 0.00 | 83 | 1013.7 |
| 20260903065339 | 80 | 259 | 0.9 | 0.9 | 0.00 | 0.00 | 0.00 | 83 | 1013.9 |
| 20260903064838 | 80 | 115 | 0.9 | 0.9 | 0.00 | 0.00 | 0.00 | 83 | 1013.8 |
| 20260903064334 | 80 | 68 | 0.9 | 1.7 | 0.00 | 0.00 | 0.00 | 83 | 1014.0 |
| 20260903063830 | 80 | 189 | 0.0 | 0.9 | 0.00 | 0.00 | 0.00 | 83 | 1014.4 |
| 20260903063325 | 80 | 190 | 0.9 | 0.9 | 0.00 | 0.00 | 0.00 | 83 | 1014.1 |
| 20260903062821 | 80 | 112 | 0.0 | 0.0 | 0.00 | 0.00 | 0.00 | 83 | 1014.0 |
| 20260903062320 | 80 | 191 | 0.0 | 0.9 | 0.00 | 0.00 | 0.00 | 84 | 1014.0 |
| 20260903061817 | 79 | 75 | 0.0 | 0.9 | 0.00 | 0.00 | 0.00 | 84 | 1014.1 |
| 20260903061315 | 79 | 81 | 0.9 | 0.9 | 0.00 | 0.00 | 0.00 | 84 | 1014.0 |
| 20260903060812 | 79 | 196 | 0.0 | 0.9 | 0.00 | 0.00 | 0.00 | 84 | 1014.1 |
| 20260903060311 | 79 | 196 | 0.0 | 0.0 | 0.00 | 0.00 | 0.00 | 84 | 1014.7 |
| 20260903055809 | 79 | 94 | 0.9 | 1.7 | 0.00 | 0.00 | 0.00 | 84 | 1014.3 |
| 20260903055308 | 80 | 108 | 0.0 | 0.9 | 0.00 | 0.00 | 0.00 | 83 | 1014.5 |
| 20260903054803 | 80 | 139 | 0.9 | 0.9 | 0.00 | 0.00 | 0.00 | 83 | 1014.6 |
| 20260903054303 | 80 | 61 | 0.9 | 0.9 | 0.00 | 0.00 | 0.00 | 82 | 1014.7 |
| 20260903053800 | 80 | 61 | 0.9 | 0.9 | 0.00 | 0.00 | 0.00 | 81 | 1014.7 |
| 20260903053254 | 80 | 84 | 0.0 | 0.9 | 0.00 | 0.00 | 0.00 | 80 | 1014.4 |
| 20260903052750 | 80 | 51 | 0.9 | 0.9 | 0.00 | 0.00 | 0.00 | 80 | 1014.5 |
| 20260903052245 | 80 | 164 | 0.9 | 0.9 | 0.00 | 0.00 | 0.00 | 79 | 1014.5 |
| 20260903051740 | 80 | 90 | 0.9 | 1.7 | 0.00 | 0.00 | 0.00 | 79 | 1014.6 |
| 20260903051236 | 80 | 63 | 0.0 | 0.9 | 0.00 | 0.00 | 0.00 | 79 | 1014.6 |
| 20260903050731 | 80 | 148 | 0.9 | 0.9 | 0.00 | 0.00 | 0.00 | 79 | 1014.9 |
| 20260903050230 | 81 | 41 | 0.9 | 1.7 | 0.00 | 0.00 | 0.00 | 78 | 1014.9 |
| 20260903045725 | 81 | 120 | 0.9 | 1.7 | 0.00 | 0.09 | 0.09 | 78 | 1014.9 |
| 20260903045221 | 81 | 82 | 1.7 | 2.6 | 0.00 | 0.09 | 0.09 | 78 | 1015.0 |
| 20260903044717 | 81 | 61 | 0.9 | 0.9 | 0.00 | 0.09 | 0.09 | 77 | 1014.9 |
| 20260903044212 | 81 | 62 | 0.9 | 0.9 | 0.00 | 0.09 | 0.09 | 77 | 1014.9 |
| 20260903043710 | 81 | 348 | 1.7 | 1.7 | 0.00 | 0.09 | 0.09 | 76 | 1015.1 |
| 20260903043209 | 82 | 54 | 0.9 | 0.9 | 0.00 | 0.09 | 0.09 | 76 | 1014.7 |
| 20260903042708 | 82 | 105 | 1.7 | 1.7 | 0.00 | 0.09 | 0.09 | 75 | 1014.6 |
| 20260903042203 | 82 | 79 | 0.9 | 0.9 | 0.00 | 0.09 | 0.09 | 75 | 1014.7 |
| 20260903041700 | 82 | 78 | 0.9 | 2.6 | 0.00 | 0.09 | 0.09 | 74 | 1014.8 |
| 20260903041155 | 82 | 56 | 1.7 | 2.6 | 0.00 | 0.09 | 0.09 | 74 | 1014.7 |
| 20260903040654 | 82 | 82 | 1.7 | 2.6 | 0.00 | 0.09 | 0.09 | 74 | 1014.9 |
| 20260903040150 | 83 | 52 | 1.7 | 1.7 | 0.00 | 0.09 | 0.09 | 74 | 1015.0 |
| 20260903035646 | 83 | 78 | 0.0 | 0.9 | 0.00 | 0.09 | 0.09 | 73 | 1014.9 |
| 20260903035141 | 83 | 44 | 0.9 | 1.7 | 0.00 | 0.09 | 0.09 | 73 | 1014.9 |
| 20260903034636 | 83 | 139 | 0.9 | 1.7 | 0.00 | 0.09 | 0.09 | 73 | 1014.7 |
| 20260903034131 | 83 | 112 | 0.9 | 1.7 | 0.00 | 0.09 | 0.09 | 73 | 1014.6 |
| 20260903033627 | 83 | 83 | 0.0 | 0.9 | 0.00 | 0.09 | 0.09 | 72 | 1014.9 |
| 20260903033126 | 84 | 110 | 0.9 | 1.7 | 0.00 | 0.09 | 0.09 | 72 | 1014.6 |
| 20260903032622 | 84 | 67 | 0.0 | 0.9 | 0.00 | 0.09 | 0.09 | 71 | 1014.6 |
| 20260903032117 | 84 | 166 | 0.0 | 0.0 | 0.00 | 0.09 | 0.09 | 71 | 1014.7 |
| 20260903031612 | 84 | 144 | 0.9 | 1.7 | 0.00 | 0.09 | 0.09 | 70 | 1014.6 |
| 20260903031107 | 84 | 185 | 0.9 | 0.9 | 0.00 | 0.09 | 0.09 | 70 | 1014.7 |
| 20260903030603 | 84 | 114 | 2.6 | 2.6 | 0.00 | 0.09 | 0.09 | 69 | 1015.0 |
| 20260903030058 | 84 | 192 | 2.6 | 6.1 | 0.00 | 0.09 | 0.09 | 69 | 1014.7 |
| 20260903025553 | 85 | 155 | 1.7 | 1.7 | 0.00 | 0.09 | 0.09 | 69 | 1014.6 |
| 20260903025049 | 85 | 150 | 0.9 | 0.9 | 0.00 | 0.09 | 0.09 | 68 | 1014.6 |
| 20260903024549 | 85 | 135 | 3.5 | 5.2 | 0.00 | 0.09 | 0.09 | 68 | 1014.4 |
| 20260903024043 | 85 | 75 | 0.9 | 1.7 | 0.00 | 0.09 | 0.09 | 67 | 1014.5 |
| 20260903023539 | 86 | 125 | 2.6 | 2.6 | 0.00 | 0.09 | 0.09 | 66 | 1014.5 |
| 20260903023034 | 86 | 125 | 4.3 | 5.2 | 0.00 | 0.09 | 0.09 | 66 | 1014.5 |
| 20260903022533 | 86 | 120 | 0.9 | 1.7 | 0.00 | 0.09 | 0.09 | 66 | 1014.5 |
| 20260903022032 | 86 | 55 | 1.7 | 2.6 | 0.00 | 0.09 | 0.09 | 65 | 1014.1 |
| 20260903021527 | 86 | 134 | 4.3 | 5.2 | 0.00 | 0.09 | 0.09 | 65 | 1014.1 |
| 20260903021022 | 86 | 91 | 3.5 | 4.3 | 0.00 | 0.09 | 0.09 | 64 | 1014.1 |
| 20260903020518 | 87 | 117 | 4.3 | 5.2 | 0.00 | 0.09 | 0.09 | 64 | 1013.8 |
| 20260903020017 | 87 | 95 | 5.2 | 6.1 | 0.00 | 0.09 | 0.09 | 63 | 1013.9 |
| 20260903015513 | 88 | 59 | 3.5 | 4.3 | 0.00 | 0.09 | 0.09 | 63 | 1013.8 |
| 20260903015008 | 88 | 157 | 1.7 | 1.7 | 0.00 | 0.09 | 0.09 | 62 | 1013.8 |
| 20260903014502 | 88 | 112 | 2.6 | 2.6 | 0.00 | 0.09 | 0.09 | 62 | 1013.5 |
| 20260903013957 | 89 | 187 | 0.9 | 1.7 | 0.00 | 0.09 | 0.09 | 61 | 1013.7 |
| 20260903013457 | 89 | 182 | 0.0 | 0.0 | 0.00 | 0.09 | 0.09 | 61 | 1013.3 |
| 20260903012956 | 89 | 134 | 2.6 | 4.3 | 0.00 | 0.09 | 0.09 | 59 | 1013.3 |
| 20260903012455 | 89 | 83 | 0.0 | 0.9 | 0.00 | 0.09 | 0.09 | 60 | 1013.1 |
| 20260903011954 | 89 | 175 | 0.9 | 0.9 | 0.00 | 0.09 | 0.09 | 59 | 1013.1 |
| 20260903011449 | 89 | 184 | 0.0 | 0.0 | 0.00 | 0.09 | 0.09 | 59 | 1013.0 |
| 20260903010944 | 89 | 109 | 0.9 | 0.9 | 0.00 | 0.09 | 0.09 | 59 | 1012.9 |
| 20260903010439 | 89 | 144 | 0.0 | 0.9 | 0.00 | 0.09 | 0.09 | 59 | 1013.0 |
| 20260903005937 | 89 | 100 | 0.0 | 0.0 | 0.00 | 0.09 | 0.09 | 59 | 1013.0 |
| 20260903005433 | 89 | 76 | 0.9 | 0.9 | 0.00 | 0.09 | 0.09 | 60 | 1013.1 |
| 20260903004930 | 89 | 165 | 0.0 | 0.9 | 0.00 | 0.09 | 0.09 | 60 | 1013.1 |
| 20260903004430 | 89 | 138 | 0.0 | 0.0 | 0.00 | 0.09 | 0.09 | 61 | 1013.0 |
| 20260903003925 | 89 | 183 | 0.9 | 0.9 | 0.00 | 0.09 | 0.09 | 62 | 1013.0 |
| 20260903003425 | 89 | 157 | 0.0 | 0.0 | 0.00 | 0.09 | 0.09 | 64 | 1013.0 |
| 20260903002920 | 89 | 87 | 0.9 | 0.9 | 0.00 | 0.09 | 0.09 | 64 | 1013.0 |
| 20260903002415 | 89 | 100 | 0.9 | 1.7 | 0.00 | 0.09 | 0.09 | 66 | 1012.9 |
| 20260903001915 | 89 | 183 | 0.0 | 0.0 | 0.00 | 0.09 | 0.09 | 66 | 1012.7 |
| 20260903001410 | 89 | 182 | 0.0 | 0.9 | 0.00 | 0.09 | 0.09 | 66 | 1012.8 |
| 20260903000909 | 89 | 134 | 0.9 | 0.9 | 0.00 | 0.09 | 0.09 | 65 | 1013.0 |
| 20260903000404 | 89 | 47 | 0.9 | 1.7 | 0.00 | 0.09 | 0.09 | 66 | 1012.8 |
| 20260902235902 | 88 | 70 | 0.9 | 0.9 | 0.00 | 0.09 | 0.09 | 68 | 1012.7 |
| 20260902235358 | 85 | 100 | 0.0 | 0.0 | 0.00 | 0.09 | 0.09 | 76 | 1012.9 |
| 20260902234852 | 84 | 199 | 0.0 | 0.0 | 0.00 | 0.09 | 0.09 | 82 | 1012.8 |
| 20260902234352 | 83 | 199 | 0.0 | 0.0 | 0.00 | 0.09 | 0.09 | 83 | 1012.7 |
| 20260902233850 | 81 | 175 | 0.0 | 0.0 | 0.00 | 0.09 | 0.09 | 89 | 1012.7 |
| 20260902233345 | 80 | 183 | 0.0 | 0.0 | 0.00 | 0.09 | 0.09 | 93 | 1012.6 |
| 20260902232844 | 79 | 152 | 0.0 | 0.0 | 0.00 | 0.09 | 0.09 | 94 | 1012.8 |
| 20260902232339 | 80 | 202 | 0.0 | 0.0 | 0.00 | 0.09 | 0.09 | 94 | 1012.7 |
| 20260902231838 | 80 | 201 | 0.0 | 0.0 | 0.00 | 0.09 | 0.09 | 94 | 1012.8 |
| 20260902231333 | 80 | 200 | 0.0 | 0.0 | 0.00 | 0.09 | 0.09 | 93 | 1012.7 |
| 20260902230828 | 79 | 196 | 0.0 | 0.0 | 0.00 | 0.09 | 0.09 | 91 | 1012.7 |
| 20260902230328 | 79 | 187 | 0.0 | 0.0 | 0.00 | 0.09 | 0.09 | 89 | 1012.8 |
| 20260902225822 | 80 | 216 | 5.2 | 7.8 | 0.00 | 0.09 | 0.09 | 87 | 1012.8 |
| 20260902225317 | 80 | 181 | 2.6 | 2.6 | 0.19 | 0.09 | 0.09 | 87 | 1013.1 |
| 20260902224816 | 82 | 203 | 1.7 | 1.7 | 0.54 | 0.09 | 0.09 | 84 | 1012.8 |
| 20260902224311 | 85 | 171 | 3.5 | 4.3 | 0.35 | 0.06 | 0.06 | 76 | 1012.7 |
| 20260902223808 | 93 | 36 | 6.1 | 8.7 | 0.00 | 0.00 | 0.00 | 58 | 1012.7 |
| 20260902223307 | 100 | 90 | 4.3 | 7.0 | 0.00 | 0.00 | 0.00 | 46 | 1012.4 |
| 20260902222801 | 100 | 69 | 0.0 | 0.9 | 0.00 | 0.00 | 0.00 | 43 | 1012.3 |
| 20260902222300 | 100 | 164 | 2.6 | 2.6 | 0.00 | 0.00 | 0.00 | 42 | 1012.2 |
| 20260902221755 | 100 | 78 | 0.9 | 0.9 | 0.00 | 0.00 | 0.00 | 42 | 1012.2 |
| 20260902221254 | 99 | 155 | 0.9 | 0.9 | 0.00 | 0.00 | 0.00 | 43 | 1012.6 |
| 20260902220750 | 98 | 224 | 0.9 | 0.9 | 0.00 | 0.00 | 0.00 | 44 | 1012.4 |
| 20260902220249 | 98 | 134 | 0.9 | 0.9 | 0.00 | 0.00 | 0.00 | 45 | 1012.6 |
| 20260902215745 | 99 | 65 | 0.9 | 1.7 | 0.00 | 0.00 | 0.00 | 43 | 1012.5 |
| 20260902215240 | 100 | 245 | 0.0 | 0.9 | 0.00 | 0.00 | 0.00 | 43 | 1012.6 |
| 20260902214736 | 101 | 125 | 0.9 | 0.9 | 0.00 | 0.00 | 0.00 | 42 | 1012.5 |
| 20260902214235 | 101 | 197 | 0.9 | 0.9 | 0.00 | 0.00 | 0.00 | 41 | 1012.5 |
| 20260902213731 | 100 | 204 | 0.0 | 0.0 | 0.00 | 0.00 | 0.00 | 42 | 1012.5 |
| 20260902213230 | 99 | 206 | 0.0 | 0.9 | 0.00 | 0.00 | 0.00 | 42 | 1012.7 |
| 20260902212730 | 100 | 59 | 2.6 | 4.3 | 0.00 | 0.00 | 0.00 | 42 | 1012.8 |
| 20260902212226 | 101 | 34 | 4.3 | 7.8 | 0.00 | 0.00 | 0.00 | 41 | 1012.7 |
| 20260902211722 | 100 | 119 | 1.7 | 1.7 | 0.00 | 0.00 | 0.00 | 42 | 1012.9 |
| 20260902211218 | 101 | 62 | 0.9 | 0.9 | 0.00 | 0.00 | 0.00 | 42 | 1012.9 |
| 20260902210712 | 100 | 133 | 1.7 | 1.7 | 0.00 | 0.00 | 0.00 | 42 | 1012.9 |
| 20260902210207 | 101 | 228 | 1.7 | 2.6 | 0.00 | 0.00 | 0.00 | 42 | 1012.9 |
| 20260902205705 | 100 | 309 | 1.7 | 1.7 | 0.00 | 0.00 | 0.00 | 42 | 1012.7 |
| 20260902205201 | 100 | 7 | 4.3 | 6.1 | 0.00 | 0.00 | 0.00 | 42 | 1013.2 |
| 20260902204656 | 100 | 114 | 0.9 | 1.7 | 0.00 | 0.00 | 0.00 | 43 | 1013.2 |
| 20260902204150 | 100 | 339 | 2.6 | 2.6 | 0.00 | 0.00 | 0.00 | 43 | 1013.4 |
| 20260902203645 | 99 | 136 | 0.9 | 1.7 | 0.00 | 0.00 | 0.00 | 43 | 1013.5 |
| 20260902203140 | 100 | 209 | 2.6 | 7.8 | 0.00 | 0.00 | 0.00 | 43 | 1013.4 |
| 20260902202636 | 100 | 290 | 4.3 | 5.2 | 0.00 | 0.00 | 0.00 | 43 | 1013.4 |
| 20260902202132 | 100 | 208 | 1.7 | 2.6 | 0.00 | 0.00 | 0.00 | 42 | 1013.6 |
| 20260902201628 | 100 | 114 | 4.3 | 7.0 | 0.00 | 0.00 | 0.00 | 43 | 1013.8 |
| 20260902201127 | 100 | 175 | 2.6 | 2.6 | 0.00 | 0.00 | 0.00 | 43 | 1013.6 |
| 20260902200622 | 100 | 109 | 3.5 | 7.0 | 0.00 | 0.00 | 0.00 | 43 | 1014.0 |
| 20260902200118 | 99 | 222 | 0.9 | 1.7 | 0.00 | 0.00 | 0.00 | 43 | 1013.9 |
| 20260902195613 | 99 | 317 | 0.9 | 4.3 | 0.00 | 0.00 | 0.00 | 45 | 1014.0 |
| 20260902195113 | 98 | 233 | 1.7 | 2.6 | 0.00 | 0.00 | 0.00 | 45 | 1014.1 |
| 20260902194612 | 99 | 5 | 4.3 | 7.0 | 0.00 | 0.00 | 0.00 | 44 | 1014.4 |
| 20260902194107 | 99 | 318 | 2.6 | 2.6 | 0.00 | 0.00 | 0.00 | 44 | 1014.3 |
| 20260902193603 | 99 | 0 | 4.3 | 5.2 | 0.00 | 0.00 | 0.00 | 43 | 1014.4 |
| 20260902193103 | 99 | 218 | 0.9 | 1.7 | 0.00 | 0.00 | 0.00 | 44 | 1014.7 |
| 20260902192601 | 99 | 304 | 6.1 | 7.8 | 0.00 | 0.00 | 0.00 | 45 | 1014.7 |
| 20260902192100 | 100 | 67 | 0.9 | 0.9 | 0.00 | 0.00 | 0.00 | 45 | 1014.7 |
| 20260902191555 | 99 | 222 | 1.7 | 2.6 | 0.00 | 0.00 | 0.00 | 44 | 1014.8 |
| 20260902191050 | 99 | 72 | 0.9 | 1.7 | 0.00 | 0.00 | 0.00 | 44 | 1015.0 |
| 20260902190545 | 98 | 204 | 0.9 | 0.9 | 0.00 | 0.00 | 0.00 | 45 | 1014.9 |
| 20260902190041 | 98 | 120 | 0.9 | 0.9 | 0.00 | 0.00 | 0.00 | 45 | 1015.1 |
| 20260902185537 | 98 | 284 | 2.6 | 2.6 | 0.00 | 0.00 | 0.00 | 46 | 1015.2 |
| 20260902185032 | 98 | 64 | 0.9 | 2.6 | 0.00 | 0.00 | 0.00 | 46 | 1015.2 |
| 20260902184527 | 98 | 182 | 0.0 | 0.0 | 0.00 | 0.00 | 0.00 | 46 | 1015.3 |
| 20260902184022 | 99 | 161 | 0.0 | 0.9 | 0.00 | 0.00 | 0.00 | 44 | 1015.3 |